owner,sensor,date,latitude,longitude,vertical_datum,sea_water_practical_salinity,qcFlag 
SCCF RECON,ioos:station:SCCF:18:1,2015-03-01T00:00:00Z,26.6955,-81.8138,1.45,0.28,1111122 
SCCF RECON,ioos:station:SCCF:18:1,2015-03-01T01:00:00Z,26.6955,-81.8138,1.5,0.29,1111122 
SCCF RECON,ioos:station:SCCF:18:1,2015-03-01T02:00:00Z,26.6955,-81.8138,1.55,0.31,1111122 
SCCF RECON,ioos:station:SCCF:18:1,2015-03-01T03:00:00Z,26.6955,-81.8138,1.6,0.31,1111122 
SCCF RECON,ioos:station:SCCF:18:1,2015-03-01T04:00:00Z,26.6955,-81.8138,1.62,0.31,1111122 
SCCF RECON,ioos:station:SCCF:18:1,2015-03-01T05:00:00Z,26.6955,-81.8138,1.621,0.36,1111122 
SCCF RECON,ioos:station:SCCF:18:1,2015-03-01T06:00:00Z,26.6955,-81.8138,1.62,0.31,1111122 
SCCF RECON,ioos:station:SCCF:18:1,2015-03-01T07:00:00Z,26.6955,-81.8138,1.579,0.27,1111122 
SCCF RECON,ioos:station:SCCF:18:1,2015-03-01T08:00:00Z,26.6955,-81.8138,1.51,0.28,1111122 
SCCF RECON,ioos:station:SCCF:18:1,2015-03-01T09:00:00Z,26.6955,-81.8138,1.46,0.33,1111122 
SCCF RECON,ioos:station:SCCF:18:1,2015-03-01T10:00:00Z,26.6955,-81.8138,1.419,0.34,1111122 
SCCF RECON,ioos:station:SCCF:18:1,2015-03-01T11:00:00Z,26.6955,-81.8138,1.38,0.32,1111122 
SCCF RECON,ioos:station:SCCF:18:1,2015-03-01T12:00:00Z,26.6955,-81.8138,1.332,0.27,1111122 
SCCF RECON,ioos:station:SCCF:18:1,2015-03-01T13:00:00Z,26.6955,-81.8138,1.3,0.3,1111122 
SCCF RECON,ioos:station:SCCF:18:1,2015-03-01T14:00:00Z,26.6955,-81.8138,1.3,0.39,1111122 
SCCF RECON,ioos:station:SCCF:18:1,2015-03-01T15:00:00Z,26.6955,-81.8138,1.31,0.31,1111122 
SCCF RECON,ioos:station:SCCF:18:1,2015-03-01T16:00:00Z,26.6955,-81.8138,1.37,0.32,1111122 
SCCF RECON,ioos:station:SCCF:18:1,2015-03-01T17:00:00Z,26.6955,-81.8138,1.436,0.35,1111122 
SCCF RECON,ioos:station:SCCF:18:1,2015-03-01T18:00:00Z,26.6955,-81.8138,1.488,0.35,1111122 
SCCF RECON,ioos:station:SCCF:18:1,2015-03-01T19:00:00Z,26.6955,-81.8138,1.53,0.32,1111122 
SCCF RECON,ioos:station:SCCF:18:1,2015-03-01T20:00:00Z,26.6955,-81.8138,1.55,0.3,1111122 
SCCF RECON,ioos:station:SCCF:18:1,2015-03-01T21:00:00Z,26.6955,-81.8138,1.56,0.27,1111122 
SCCF RECON,ioos:station:SCCF:18:1,2015-03-01T22:00:00Z,26.6955,-81.8138,1.53,0.31,1111122 
SCCF RECON,ioos:station:SCCF:18:1,2015-03-01T23:00:00Z,26.6955,-81.8138,1.49,0.3,1111122 
SCCF RECON,ioos:station:SCCF:18:1,2015-03-02T00:00:00Z,26.6955,-81.8138,1.459,0.31,1111122 
SCCF RECON,ioos:station:SCCF:18:1,2015-03-02T01:00:00Z,26.6955,-81.8138,1.46,0.32,1111122 
SCCF RECON,ioos:station:SCCF:18:1,2015-03-02T02:00:00Z,26.6955,-81.8138,1.52,0.35,1111122 
SCCF RECON,ioos:station:SCCF:18:1,2015-03-02T03:00:00Z,26.6955,-81.8138,1.61,0.51,1111122 
SCCF RECON,ioos:station:SCCF:18:1,2015-03-02T04:00:00Z,26.6955,-81.8138,1.67,0.42,1111122 
SCCF RECON,ioos:station:SCCF:18:1,2015-03-02T05:00:00Z,26.6955,-81.8138,1.69,0.37,1111122 
SCCF RECON,ioos:station:SCCF:18:1,2015-03-02T06:00:00Z,26.6955,-81.8138,1.71,0.36,1111122 
SCCF RECON,ioos:station:SCCF:18:1,2015-03-02T07:00:00Z,26.6955,-81.8138,1.71,0.36,1111122 
SCCF RECON,ioos:station:SCCF:18:1,2015-03-02T08:00:00Z,26.6955,-81.8138,1.657,0.29,1111122 
SCCF RECON,ioos:station:SCCF:18:1,2015-03-02T09:00:00Z,26.6955,-81.8138,1.57,0.32,1111122 
SCCF RECON,ioos:station:SCCF:18:1,2015-03-02T10:00:00Z,26.6955,-81.8138,1.52,0.46,1111122 
SCCF RECON,ioos:station:SCCF:18:1,2015-03-02T11:00:00Z,26.6955,-81.8138,1.48,0.35,1111122 
SCCF RECON,ioos:station:SCCF:18:1,2015-03-02T12:00:00Z,26.6955,-81.8138,1.44,0.3,1111122 
SCCF RECON,ioos:station:SCCF:18:1,2015-03-02T13:00:00Z,26.6955,-81.8138,1.39,0.31,1111122 
SCCF RECON,ioos:station:SCCF:18:1,2015-03-02T14:00:00Z,26.6955,-81.8138,1.35,0.32,1111122 
SCCF RECON,ioos:station:SCCF:18:1,2015-03-02T15:00:00Z,26.6955,-81.8138,1.33,0.31,1111122 
SCCF RECON,ioos:station:SCCF:18:1,2015-03-02T16:00:00Z,26.6955,-81.8138,1.351,0.39,1111122 
SCCF RECON,ioos:station:SCCF:18:1,2015-03-02T17:00:00Z,26.6955,-81.8138,1.41,0.37,1111122 
SCCF RECON,ioos:station:SCCF:18:1,2015-03-02T18:00:00Z,26.6955,-81.8138,1.47,0.46,1111122 
SCCF RECON,ioos:station:SCCF:18:1,2015-03-02T19:00:00Z,26.6955,-81.8138,1.5,0.43,1111122 
SCCF RECON,ioos:station:SCCF:18:1,2015-03-02T20:00:00Z,26.6955,-81.8138,1.52,0.34,1111122 
SCCF RECON,ioos:station:SCCF:18:1,2015-03-02T21:00:00Z,26.6955,-81.8138,1.52,0.31,1111122 
SCCF RECON,ioos:station:SCCF:18:1,2015-03-02T22:00:00Z,26.6955,-81.8138,1.493,0.34,1111122 
SCCF RECON,ioos:station:SCCF:18:1,2015-03-02T23:00:00Z,26.6955,-81.8138,1.449,0.33,1111122 
SCCF RECON,ioos:station:SCCF:18:1,2015-03-03T00:00:00Z,26.6955,-81.8138,1.41,0.35,1111122 
SCCF RECON,ioos:station:SCCF:18:1,2015-03-03T01:00:00Z,26.6955,-81.8138,1.4,0.34,1111122 
SCCF RECON,ioos:station:SCCF:18:1,2015-03-03T02:00:00Z,26.6955,-81.8138,1.41,0.4,1111122 
SCCF RECON,ioos:station:SCCF:18:1,2015-03-03T03:00:00Z,26.6955,-81.8138,1.45,0.31,1111122 
SCCF RECON,ioos:station:SCCF:18:1,2015-03-03T04:00:00Z,26.6955,-81.8138,1.52,0.47,1111122 
SCCF RECON,ioos:station:SCCF:18:1,2015-03-03T05:00:00Z,26.6955,-81.8138,1.59,0.54,1111122 
SCCF RECON,ioos:station:SCCF:18:1,2015-03-03T06:00:00Z,26.6955,-81.8138,1.63,0.53,1111122 
SCCF RECON,ioos:station:SCCF:18:1,2015-03-03T07:00:00Z,26.6955,-81.8138,1.66,0.45,1111122 
SCCF RECON,ioos:station:SCCF:18:1,2015-03-03T08:00:00Z,26.6955,-81.8138,1.66,0.37,1111122 
SCCF RECON,ioos:station:SCCF:18:1,2015-03-03T09:00:00Z,26.6955,-81.8138,1.6,0.34,1111122 
SCCF RECON,ioos:station:SCCF:18:1,2015-03-03T10:00:00Z,26.6955,-81.8138,1.52,0.37,1111122 
SCCF RECON,ioos:station:SCCF:18:1,2015-03-03T11:00:00Z,26.6955,-81.8138,1.46,0.38,1111122 
SCCF RECON,ioos:station:SCCF:18:1,2015-03-03T12:00:00Z,26.6955,-81.8138,1.422,0.35,1111122 
SCCF RECON,ioos:station:SCCF:18:1,2015-03-03T13:00:00Z,26.6955,-81.8138,1.389,0.38,1111122 
SCCF RECON,ioos:station:SCCF:18:1,2015-03-03T14:00:00Z,26.6955,-81.8138,1.345,0.34,1111122 
SCCF RECON,ioos:station:SCCF:18:1,2015-03-03T15:00:00Z,26.6955,-81.8138,1.31,0.36,1111122 
SCCF RECON,ioos:station:SCCF:18:1,2015-03-03T16:00:00Z,26.6955,-81.8138,1.304,0.38,1111122 
SCCF RECON,ioos:station:SCCF:18:1,2015-03-03T17:00:00Z,26.6955,-81.8138,1.36,0.5,1111122 
SCCF RECON,ioos:station:SCCF:18:1,2015-03-03T18:00:00Z,26.6955,-81.8138,1.43,0.59,1111122 
SCCF RECON,ioos:station:SCCF:18:1,2015-03-03T19:00:00Z,26.6955,-81.8138,1.47,0.46,1111122 
SCCF RECON,ioos:station:SCCF:18:1,2015-03-03T20:00:00Z,26.6955,-81.8138,1.508,0.39,1111122 
SCCF RECON,ioos:station:SCCF:18:1,2015-03-03T21:00:00Z,26.6955,-81.8138,1.519,0.36,1111122 
SCCF RECON,ioos:station:SCCF:18:1,2015-03-03T22:00:00Z,26.6955,-81.8138,1.507,0.47,1111122 
SCCF RECON,ioos:station:SCCF:18:1,2015-03-03T23:00:00Z,26.6955,-81.8138,1.467,0.42,1111122 
SCCF RECON,ioos:station:SCCF:18:1,2015-03-04T00:00:00Z,26.6955,-81.8138,1.43,0.44,1111122 
SCCF RECON,ioos:station:SCCF:18:1,2015-03-04T01:00:00Z,26.6955,-81.8138,1.4,0.44,1111122 
SCCF RECON,ioos:station:SCCF:18:1,2015-03-04T02:00:00Z,26.6955,-81.8138,1.38,0.42,1111122 
SCCF RECON,ioos:station:SCCF:18:1,2015-03-04T03:00:00Z,26.6955,-81.8138,1.39,0.54,1111122 
SCCF RECON,ioos:station:SCCF:18:1,2015-03-04T04:00:00Z,26.6955,-81.8138,1.47,0.76,1111122 
SCCF RECON,ioos:station:SCCF:18:1,2015-03-04T05:00:00Z,26.6955,-81.8138,1.55,0.83,1111122 
SCCF RECON,ioos:station:SCCF:18:1,2015-03-04T06:00:00Z,26.6955,-81.8138,1.6,0.67,1111122 
SCCF RECON,ioos:station:SCCF:18:1,2015-03-04T07:00:00Z,26.6955,-81.8138,1.63,0.74,1111122 
SCCF RECON,ioos:station:SCCF:18:1,2015-03-04T08:00:00Z,26.6955,-81.8138,1.656,0.63,1111122 
SCCF RECON,ioos:station:SCCF:18:1,2015-03-04T09:00:00Z,26.6955,-81.8138,1.63,0.67,1111122 
SCCF RECON,ioos:station:SCCF:18:1,2015-03-04T10:00:00Z,26.6955,-81.8138,1.56,0.49,1111122 
SCCF RECON,ioos:station:SCCF:18:1,2015-03-04T11:00:00Z,26.6955,-81.8138,1.5,0.49,1111122 
SCCF RECON,ioos:station:SCCF:18:1,2015-03-04T12:00:00Z,26.6955,-81.8138,1.45,0.56,1111122 
SCCF RECON,ioos:station:SCCF:18:1,2015-03-04T13:00:00Z,26.6955,-81.8138,1.42,0.42,1111122 
SCCF RECON,ioos:station:SCCF:18:1,2015-03-04T14:00:00Z,26.6955,-81.8138,1.379,0.41,1111122 
SCCF RECON,ioos:station:SCCF:18:1,2015-03-04T15:00:00Z,26.6955,-81.8138,1.339,0.41,1111122 
SCCF RECON,ioos:station:SCCF:18:1,2015-03-04T16:00:00Z,26.6955,-81.8138,1.33,0.43,1111122 
SCCF RECON,ioos:station:SCCF:18:1,2015-03-04T17:00:00Z,26.6955,-81.8138,1.393,0.58,1111122 
SCCF RECON,ioos:station:SCCF:18:1,2015-03-04T18:00:00Z,26.6955,-81.8138,1.47,0.74,1111122 
SCCF RECON,ioos:station:SCCF:18:1,2015-03-04T19:00:00Z,26.6955,-81.8138,1.53,0.86,1111122 
SCCF RECON,ioos:station:SCCF:18:1,2015-03-04T20:00:00Z,26.6955,-81.8138,1.58,0.95,1111122 
SCCF RECON,ioos:station:SCCF:18:1,2015-03-04T21:00:00Z,26.6955,-81.8138,1.62,1.03,1111122 
SCCF RECON,ioos:station:SCCF:18:1,2015-03-04T22:00:00Z,26.6955,-81.8138,1.63,1.12,1111122 
SCCF RECON,ioos:station:SCCF:18:1,2015-03-04T23:00:00Z,26.6955,-81.8138,1.6,0.93,1111122 
SCCF RECON,ioos:station:SCCF:18:1,2015-03-05T00:00:00Z,26.6955,-81.8138,1.521,0.65,1111122 
SCCF RECON,ioos:station:SCCF:18:1,2015-03-05T01:00:00Z,26.6955,-81.8138,1.46,0.57,1111122 
SCCF RECON,ioos:station:SCCF:18:1,2015-03-05T02:00:00Z,26.6955,-81.8138,1.42,0.62,1111122 
SCCF RECON,ioos:station:SCCF:18:1,2015-03-05T03:00:00Z,26.6955,-81.8138,1.39,0.66,1111122 
SCCF RECON,ioos:station:SCCF:18:1,2015-03-05T04:00:00Z,26.6955,-81.8138,1.42,0.57,1111122 
SCCF RECON,ioos:station:SCCF:18:1,2015-03-05T05:00:00Z,26.6955,-81.8138,1.5,0.79,1111122 
SCCF RECON,ioos:station:SCCF:18:1,2015-03-05T06:00:00Z,26.6955,-81.8138,1.58,0.85,1111122 
SCCF RECON,ioos:station:SCCF:18:1,2015-03-05T07:00:00Z,26.6955,-81.8138,1.62,0.86,1111122 
SCCF RECON,ioos:station:SCCF:18:1,2015-03-05T08:00:00Z,26.6955,-81.8138,1.65,0.94,1111122 
SCCF RECON,ioos:station:SCCF:18:1,2015-03-05T09:00:00Z,26.6955,-81.8138,1.67,0.79,1111122 
SCCF RECON,ioos:station:SCCF:18:1,2015-03-05T10:00:00Z,26.6955,-81.8138,1.636,0.73,1111122 
SCCF RECON,ioos:station:SCCF:18:1,2015-03-05T11:00:00Z,26.6955,-81.8138,1.56,0.6,1111122 
SCCF RECON,ioos:station:SCCF:18:1,2015-03-05T12:00:00Z,26.6955,-81.8138,1.5,0.53,1111122 
SCCF RECON,ioos:station:SCCF:18:1,2015-03-05T13:00:00Z,26.6955,-81.8138,1.46,0.55,1111122 
SCCF RECON,ioos:station:SCCF:18:1,2015-03-05T14:00:00Z,26.6955,-81.8138,1.43,0.57,1111122 
SCCF RECON,ioos:station:SCCF:18:1,2015-03-05T15:00:00Z,26.6955,-81.8138,1.4,0.53,1111122 
SCCF RECON,ioos:station:SCCF:18:1,2015-03-05T16:00:00Z,26.6955,-81.8138,1.39,0.57,1111122 
SCCF RECON,ioos:station:SCCF:18:1,2015-03-05T17:00:00Z,26.6955,-81.8138,1.46,0.6,1111122 
SCCF RECON,ioos:station:SCCF:18:1,2015-03-05T18:00:00Z,26.6955,-81.8138,1.54,0.78,1111122 
SCCF RECON,ioos:station:SCCF:18:1,2015-03-05T19:00:00Z,26.6955,-81.8138,1.62,0.91,1111122 
SCCF RECON,ioos:station:SCCF:18:1,2015-03-05T20:00:00Z,26.6955,-81.8138,1.648,0.87,1111122 
SCCF RECON,ioos:station:SCCF:18:1,2015-03-05T21:00:00Z,26.6955,-81.8138,1.68,0.85,1111122 
SCCF RECON,ioos:station:SCCF:18:1,2015-03-05T22:00:00Z,26.6955,-81.8138,1.68,1.03,1111122 
SCCF RECON,ioos:station:SCCF:18:1,2015-03-05T23:00:00Z,26.6955,-81.8138,1.62,0.84,1111122 
SCCF RECON,ioos:station:SCCF:18:1,2015-03-06T00:00:00Z,26.6955,-81.8138,1.54,0.75,1111122 
SCCF RECON,ioos:station:SCCF:18:1,2015-03-06T01:00:00Z,26.6955,-81.8138,1.48,0.77,1111122 
SCCF RECON,ioos:station:SCCF:18:1,2015-03-06T02:00:00Z,26.6955,-81.8138,1.44,0.76,1111122 
SCCF RECON,ioos:station:SCCF:18:1,2015-03-06T03:00:00Z,26.6955,-81.8138,1.39,0.71,1111122 
SCCF RECON,ioos:station:SCCF:18:1,2015-03-06T04:00:00Z,26.6955,-81.8138,1.351,0.7,1111122 
SCCF RECON,ioos:station:SCCF:18:1,2015-03-06T05:00:00Z,26.6955,-81.8138,1.37,0.68,1111122 
SCCF RECON,ioos:station:SCCF:18:1,2015-03-06T06:00:00Z,26.6955,-81.8138,1.45,0.92,1111122 
SCCF RECON,ioos:station:SCCF:18:1,2015-03-06T07:00:00Z,26.6955,-81.8138,1.52,0.84,1111122 
SCCF RECON,ioos:station:SCCF:18:1,2015-03-06T08:00:00Z,26.6955,-81.8138,1.55,0.91,1111122 
SCCF RECON,ioos:station:SCCF:18:1,2015-03-06T09:00:00Z,26.6955,-81.8138,1.58,0.88,1111122 
SCCF RECON,ioos:station:SCCF:18:1,2015-03-06T10:00:00Z,26.6955,-81.8138,1.58,0.86,1111122 
SCCF RECON,ioos:station:SCCF:18:1,2015-03-06T11:00:00Z,26.6955,-81.8138,1.52,0.69,1111122 
SCCF RECON,ioos:station:SCCF:18:1,2015-03-06T12:00:00Z,26.6955,-81.8138,1.45,0.66,1111122 
SCCF RECON,ioos:station:SCCF:18:1,2015-03-06T13:00:00Z,26.6955,-81.8138,1.42,0.79,1111122 
SCCF RECON,ioos:station:SCCF:18:1,2015-03-06T14:00:00Z,26.6955,-81.8138,1.39,0.66,1111122 
SCCF RECON,ioos:station:SCCF:18:1,2015-03-06T15:00:00Z,26.6955,-81.8138,1.342,0.65,1111122 
SCCF RECON,ioos:station:SCCF:18:1,2015-03-06T16:00:00Z,26.6955,-81.8138,1.31,0.63,1111122 
SCCF RECON,ioos:station:SCCF:18:1,2015-03-06T17:00:00Z,26.6955,-81.8138,1.32,0.61,1111122 
SCCF RECON,ioos:station:SCCF:18:1,2015-03-06T18:00:00Z,26.6955,-81.8138,1.41,0.75,1111122 
SCCF RECON,ioos:station:SCCF:18:1,2015-03-06T19:00:00Z,26.6955,-81.8138,1.5,0.8,1111122 
SCCF RECON,ioos:station:SCCF:18:1,2015-03-06T20:00:00Z,26.6955,-81.8138,1.56,0.84,1111122 
SCCF RECON,ioos:station:SCCF:18:1,2015-03-06T21:00:00Z,26.6955,-81.8138,1.61,0.84,1111122 
SCCF RECON,ioos:station:SCCF:18:1,2015-03-06T22:00:00Z,26.6955,-81.8138,1.64,0.85,1111122 
SCCF RECON,ioos:station:SCCF:18:1,2015-03-06T23:00:00Z,26.6955,-81.8138,1.61,0.8,1111122 
SCCF RECON,ioos:station:SCCF:18:1,2015-03-07T00:00:00Z,26.6955,-81.8138,1.54,0.72,1111122 
SCCF RECON,ioos:station:SCCF:18:1,2015-03-07T01:00:00Z,26.6955,-81.8138,1.49,0.66,1111122 
SCCF RECON,ioos:station:SCCF:18:1,2015-03-07T02:00:00Z,26.6955,-81.8138,1.452,0.7,1111122 
SCCF RECON,ioos:station:SCCF:18:1,2015-03-07T03:00:00Z,26.6955,-81.8138,1.4,0.66,1111122 
SCCF RECON,ioos:station:SCCF:18:1,2015-03-07T04:00:00Z,26.6955,-81.8138,1.34,0.62,1111122 
SCCF RECON,ioos:station:SCCF:18:1,2015-03-07T05:00:00Z,26.6955,-81.8138,1.291,0.57,1111122 
SCCF RECON,ioos:station:SCCF:18:1,2015-03-07T06:00:00Z,26.6955,-81.8138,1.3,0.6,1111122 
SCCF RECON,ioos:station:SCCF:18:1,2015-03-07T07:00:00Z,26.6955,-81.8138,1.351,0.62,1111122 
SCCF RECON,ioos:station:SCCF:18:1,2015-03-07T08:00:00Z,26.6955,-81.8138,1.42,0.65,1111122 
SCCF RECON,ioos:station:SCCF:18:1,2015-03-07T09:00:00Z,26.6955,-81.8138,1.449,0.64,1111122 
SCCF RECON,ioos:station:SCCF:18:1,2015-03-07T10:00:00Z,26.6955,-81.8138,1.45,0.6,1111122 
SCCF RECON,ioos:station:SCCF:18:1,2015-03-07T11:00:00Z,26.6955,-81.8138,1.42,0.61,1111122 
SCCF RECON,ioos:station:SCCF:18:1,2015-03-07T12:00:00Z,26.6955,-81.8138,1.37,0.61,1111122 
SCCF RECON,ioos:station:SCCF:18:1,2015-03-07T13:00:00Z,26.6955,-81.8138,1.32,0.63,1111122 
SCCF RECON,ioos:station:SCCF:18:1,2015-03-07T14:00:00Z,26.6955,-81.8138,1.28,0.62,1111122 
SCCF RECON,ioos:station:SCCF:18:1,2015-03-07T15:00:00Z,26.6955,-81.8138,1.243,0.62,1111122 
SCCF RECON,ioos:station:SCCF:18:1,2015-03-07T16:00:00Z,26.6955,-81.8138,1.21,0.61,1111122 
SCCF RECON,ioos:station:SCCF:18:1,2015-03-07T17:00:00Z,26.6955,-81.8138,1.178,0.6,1111122 
SCCF RECON,ioos:station:SCCF:18:1,2015-03-07T18:00:00Z,26.6955,-81.8138,1.17,0.58,1111122 
SCCF RECON,ioos:station:SCCF:18:1,2015-03-07T19:00:00Z,26.6955,-81.8138,1.232,0.57,1111122 
SCCF RECON,ioos:station:SCCF:18:1,2015-03-07T20:00:00Z,26.6955,-81.8138,1.29,0.58,1111122 
SCCF RECON,ioos:station:SCCF:18:1,2015-03-07T21:00:00Z,26.6955,-81.8138,1.354,0.58,1111122 
SCCF RECON,ioos:station:SCCF:18:1,2015-03-07T22:00:00Z,26.6955,-81.8138,1.38,0.58,1111122 
SCCF RECON,ioos:station:SCCF:18:1,2015-03-07T23:00:00Z,26.6955,-81.8138,1.39,0.57,1111122 
SCCF RECON,ioos:station:SCCF:18:1,2015-03-08T00:00:00Z,26.6955,-81.8138,1.36,0.54,1111122 
SCCF RECON,ioos:station:SCCF:18:1,2015-03-08T01:00:00Z,26.6955,-81.8138,1.31,0.52,1111122 
SCCF RECON,ioos:station:SCCF:18:1,2015-03-08T02:00:00Z,26.6955,-81.8138,1.272,0.51,1111122 
SCCF RECON,ioos:station:SCCF:18:1,2015-03-08T03:00:00Z,26.6955,-81.8138,1.25,0.5,1111122 
SCCF RECON,ioos:station:SCCF:18:1,2015-03-08T04:00:00Z,26.6955,-81.8138,1.22,0.48,1111122 
SCCF RECON,ioos:station:SCCF:18:1,2015-03-08T05:00:00Z,26.6955,-81.8138,1.2,0.46,1111122 
SCCF RECON,ioos:station:SCCF:18:1,2015-03-08T06:00:00Z,26.6955,-81.8138,1.229,0.46,1111122 
SCCF RECON,ioos:station:SCCF:18:1,2015-03-08T07:00:00Z,26.6955,-81.8138,1.3,0.47,1111122 
SCCF RECON,ioos:station:SCCF:18:1,2015-03-08T08:00:00Z,26.6955,-81.8138,1.37,0.48,1111122 
SCCF RECON,ioos:station:SCCF:18:1,2015-03-08T09:00:00Z,26.6955,-81.8138,1.41,0.47,1111122 
SCCF RECON,ioos:station:SCCF:18:1,2015-03-08T10:00:00Z,26.6955,-81.8138,1.44,0.46,1111122 
SCCF RECON,ioos:station:SCCF:18:1,2015-03-08T11:00:00Z,26.6955,-81.8138,1.46,0.47,1111122 
SCCF RECON,ioos:station:SCCF:18:1,2015-03-08T12:00:00Z,26.6955,-81.8138,1.43,0.45,1111122 
SCCF RECON,ioos:station:SCCF:18:1,2015-03-08T13:00:00Z,26.6955,-81.8138,1.387,0.39,1111122 
SCCF RECON,ioos:station:SCCF:18:1,2015-03-08T14:00:00Z,26.6955,-81.8138,1.33,0.37,1111122 
SCCF RECON,ioos:station:SCCF:18:1,2015-03-08T15:00:00Z,26.6955,-81.8138,1.279,0.37,1111122 
SCCF RECON,ioos:station:SCCF:18:1,2015-03-08T16:00:00Z,26.6955,-81.8138,1.242,0.36,1111122 
SCCF RECON,ioos:station:SCCF:18:1,2015-03-08T17:00:00Z,26.6955,-81.8138,1.219,0.37,1111122 
SCCF RECON,ioos:station:SCCF:18:1,2015-03-08T18:00:00Z,26.6955,-81.8138,1.223,0.35,1111122 
SCCF RECON,ioos:station:SCCF:18:1,2015-03-08T19:00:00Z,26.6955,-81.8138,1.3,0.36,1111122 
SCCF RECON,ioos:station:SCCF:18:1,2015-03-08T20:00:00Z,26.6955,-81.8138,1.374,0.45,1111122 
SCCF RECON,ioos:station:SCCF:18:1,2015-03-08T21:00:00Z,26.6955,-81.8138,1.429,0.39,1111122 
SCCF RECON,ioos:station:SCCF:18:1,2015-03-08T22:00:00Z,26.6955,-81.8138,1.461,0.37,1111122 
SCCF RECON,ioos:station:SCCF:18:1,2015-03-08T23:00:00Z,26.6955,-81.8138,1.497,0.35,1111122 
SCCF RECON,ioos:station:SCCF:18:1,2015-03-09T00:00:00Z,26.6955,-81.8138,1.49,0.35,1111122 
SCCF RECON,ioos:station:SCCF:18:1,2015-03-09T01:00:00Z,26.6955,-81.8138,1.44,0.33,1111122 
SCCF RECON,ioos:station:SCCF:18:1,2015-03-09T02:00:00Z,26.6955,-81.8138,1.38,0.33,1111122 
SCCF RECON,ioos:station:SCCF:18:1,2015-03-09T03:00:00Z,26.6955,-81.8138,1.35,0.32,1111122 
SCCF RECON,ioos:station:SCCF:18:1,2015-03-09T04:00:00Z,26.6955,-81.8138,1.3,0.32,1111122 
SCCF RECON,ioos:station:SCCF:18:1,2015-03-09T05:00:00Z,26.6955,-81.8138,1.26,0.32,1111122 
SCCF RECON,ioos:station:SCCF:18:1,2015-03-09T06:00:00Z,26.6955,-81.8138,1.24,0.32,1111122 
SCCF RECON,ioos:station:SCCF:18:1,2015-03-09T07:00:00Z,26.6955,-81.8138,1.27,0.32,1111122 
SCCF RECON,ioos:station:SCCF:18:1,2015-03-09T08:00:00Z,26.6955,-81.8138,1.33,0.32,1111122 
SCCF RECON,ioos:station:SCCF:18:1,2015-03-09T09:00:00Z,26.6955,-81.8138,1.399,0.32,1111122 
SCCF RECON,ioos:station:SCCF:18:1,2015-03-09T10:00:00Z,26.6955,-81.8138,1.44,0.31,1111122 
SCCF RECON,ioos:station:SCCF:18:1,2015-03-09T11:00:00Z,26.6955,-81.8138,1.46,0.31,1111122 
SCCF RECON,ioos:station:SCCF:18:1,2015-03-09T12:00:00Z,26.6955,-81.8138,1.47,0.31,1111122 
SCCF RECON,ioos:station:SCCF:18:1,2015-03-09T13:00:00Z,26.6955,-81.8138,1.44,0.31,1111122 
SCCF RECON,ioos:station:SCCF:18:1,2015-03-09T14:00:00Z,26.6955,-81.8138,1.385,0.3,1111122 
SCCF RECON,ioos:station:SCCF:18:1,2015-03-09T15:00:00Z,26.6955,-81.8138,1.338,0.3,1111122 
SCCF RECON,ioos:station:SCCF:18:1,2015-03-09T16:00:00Z,26.6955,-81.8138,1.31,0.31,1111122 
SCCF RECON,ioos:station:SCCF:18:1,2015-03-09T17:00:00Z,26.6955,-81.8138,1.29,0.3,1111122 
SCCF RECON,ioos:station:SCCF:18:1,2015-03-09T18:00:00Z,26.6955,-81.8138,1.325,0.3,1111122 
SCCF RECON,ioos:station:SCCF:18:1,2015-03-09T19:00:00Z,26.6955,-81.8138,1.39,0.3,1111122 
SCCF RECON,ioos:station:SCCF:18:1,2015-03-09T20:00:00Z,26.6955,-81.8138,1.461,0.3,1111122 
SCCF RECON,ioos:station:SCCF:18:1,2015-03-09T21:00:00Z,26.6955,-81.8138,1.51,0.31,1111122 
SCCF RECON,ioos:station:SCCF:18:1,2015-03-09T22:00:00Z,26.6955,-81.8138,1.55,0.31,1111122 
SCCF RECON,ioos:station:SCCF:18:1,2015-03-09T23:00:00Z,26.6955,-81.8138,1.62,0.31,1111122 
SCCF RECON,ioos:station:SCCF:18:1,2015-03-10T00:00:00Z,26.6955,-81.8138,1.659,0.32,1111122 
SCCF RECON,ioos:station:SCCF:18:1,2015-03-10T01:00:00Z,26.6955,-81.8138,1.62,0.3,1111122 
SCCF RECON,ioos:station:SCCF:18:1,2015-03-10T02:00:00Z,26.6955,-81.8138,1.542,0.3,1111122 
SCCF RECON,ioos:station:SCCF:18:1,2015-03-10T03:00:00Z,26.6955,-81.8138,1.481,0.3,1111122 
SCCF RECON,ioos:station:SCCF:18:1,2015-03-10T04:00:00Z,26.6955,-81.8138,1.437,0.3,1111122 
SCCF RECON,ioos:station:SCCF:18:1,2015-03-10T05:00:00Z,26.6955,-81.8138,1.39,0.3,1111122 
SCCF RECON,ioos:station:SCCF:18:1,2015-03-10T06:00:00Z,26.6955,-81.8138,1.35,0.3,1111122 
SCCF RECON,ioos:station:SCCF:18:1,2015-03-10T07:00:00Z,26.6955,-81.8138,1.321,0.3,1111122 
SCCF RECON,ioos:station:SCCF:18:1,2015-03-10T08:00:00Z,26.6955,-81.8138,1.36,0.3,1111122 
SCCF RECON,ioos:station:SCCF:18:1,2015-03-10T09:00:00Z,26.6955,-81.8138,1.44,0.3,1111122 
SCCF RECON,ioos:station:SCCF:18:1,2015-03-10T10:00:00Z,26.6955,-81.8138,1.52,0.3,1111122 
SCCF RECON,ioos:station:SCCF:18:1,2015-03-10T11:00:00Z,26.6955,-81.8138,1.56,0.3,1111122 
SCCF RECON,ioos:station:SCCF:18:1,2015-03-10T12:00:00Z,26.6955,-81.8138,1.56,0.3,1111122 
SCCF RECON,ioos:station:SCCF:18:1,2015-03-10T13:00:00Z,26.6955,-81.8138,1.535,0.3,1111122 
SCCF RECON,ioos:station:SCCF:18:1,2015-03-10T14:00:00Z,26.6955,-81.8138,1.49,0.3,1111122 
SCCF RECON,ioos:station:SCCF:18:1,2015-03-10T15:00:00Z,26.6955,-81.8138,1.44,0.3,1111122 
SCCF RECON,ioos:station:SCCF:18:1,2015-03-10T16:00:00Z,26.6955,-81.8138,1.41,0.29,1111122 
SCCF RECON,ioos:station:SCCF:18:1,2015-03-10T17:00:00Z,26.6955,-81.8138,1.382,0.29,1111122 
SCCF RECON,ioos:station:SCCF:18:1,2015-03-10T18:00:00Z,26.6955,-81.8138,1.37,0.29,1111122 
SCCF RECON,ioos:station:SCCF:18:1,2015-03-10T19:00:00Z,26.6955,-81.8138,1.428,0.29,1111122 
SCCF RECON,ioos:station:SCCF:18:1,2015-03-10T20:00:00Z,26.6955,-81.8138,1.508,0.29,1111122 
SCCF RECON,ioos:station:SCCF:18:1,2015-03-10T21:00:00Z,26.6955,-81.8138,1.615,0.29,1111122 
SCCF RECON,ioos:station:SCCF:18:1,2015-03-10T22:00:00Z,26.6955,-81.8138,1.67,0.3,1111122 
SCCF RECON,ioos:station:SCCF:18:1,2015-03-10T23:00:00Z,26.6955,-81.8138,1.71,0.31,1111122 
SCCF RECON,ioos:station:SCCF:18:1,2015-03-11T00:00:00Z,26.6955,-81.8138,1.719,0.3,1111122 
SCCF RECON,ioos:station:SCCF:18:1,2015-03-11T01:00:00Z,26.6955,-81.8138,1.69,0.3,1111122 
SCCF RECON,ioos:station:SCCF:18:1,2015-03-11T02:00:00Z,26.6955,-81.8138,1.62,0.29,1111122 
SCCF RECON,ioos:station:SCCF:18:1,2015-03-11T03:00:00Z,26.6955,-81.8138,1.55,0.29,1111122 
SCCF RECON,ioos:station:SCCF:18:1,2015-03-11T04:00:00Z,26.6955,-81.8138,1.5,0.3,1111122 
SCCF RECON,ioos:station:SCCF:18:1,2015-03-11T05:00:00Z,26.6955,-81.8138,1.451,0.29,1111122 
SCCF RECON,ioos:station:SCCF:18:1,2015-03-11T06:00:00Z,26.6955,-81.8138,1.402,0.29,1111122 
SCCF RECON,ioos:station:SCCF:18:1,2015-03-11T07:00:00Z,26.6955,-81.8138,1.37,0.29,1111122 
SCCF RECON,ioos:station:SCCF:18:1,2015-03-11T08:00:00Z,26.6955,-81.8138,1.36,0.28,1111122 
SCCF RECON,ioos:station:SCCF:18:1,2015-03-11T09:00:00Z,26.6955,-81.8138,1.4,0.29,1111122 
SCCF RECON,ioos:station:SCCF:18:1,2015-03-11T10:00:00Z,26.6955,-81.8138,1.45,0.28,1111122 
SCCF RECON,ioos:station:SCCF:18:1,2015-03-11T11:00:00Z,26.6955,-81.8138,1.5,0.29,1111122 
SCCF RECON,ioos:station:SCCF:18:1,2015-03-11T12:00:00Z,26.6955,-81.8138,1.54,0.28,1111122 
SCCF RECON,ioos:station:SCCF:18:1,2015-03-11T13:00:00Z,26.6955,-81.8138,1.56,0.28,1111122 
SCCF RECON,ioos:station:SCCF:18:1,2015-03-11T14:00:00Z,26.6955,-81.8138,1.54,0.28,1111122 
SCCF RECON,ioos:station:SCCF:18:1,2015-03-11T15:00:00Z,26.6955,-81.8138,1.49,0.27,1111122 
SCCF RECON,ioos:station:SCCF:18:1,2015-03-11T16:00:00Z,26.6955,-81.8138,1.449,0.27,1111122 
SCCF RECON,ioos:station:SCCF:18:1,2015-03-11T18:00:00Z,26.6955,-81.8138,1.38,0.28,1111122 
SCCF RECON,ioos:station:SCCF:18:1,2015-03-11T19:00:00Z,26.6955,-81.8138,1.417,0.27,1111122 
SCCF RECON,ioos:station:SCCF:18:1,2015-03-11T20:00:00Z,26.6955,-81.8138,1.52,0.27,1111122 
SCCF RECON,ioos:station:SCCF:18:1,2015-03-11T21:00:00Z,26.6955,-81.8138,1.603,0.28,1111122 
SCCF RECON,ioos:station:SCCF:18:1,2015-03-11T22:00:00Z,26.6955,-81.8138,1.63,0.28,1111122 